Date,TemperatureHighF,TemperatureAvgF,TemperatureLowF,DewpointHighF,DewpointAvgF,DewpointLowF,HumidityHigh,HumidityAvg,HumidityLow,PressureMaxIn,PressureMinIn,WindSpeedMaxMPH,WindSpeedAvgMPH,GustSpeedMaxMPH,PrecipitationSumIn
2013-1-1,30.0,16.2,4.5,10.2,6.5,-5.3,82,66,43,30.42,30.30,8,2,9,0.00
2013-1-2,17.4,12.0,8.1,8.3,5.6,2.9,79,75,61,30.39,30.27,5,1,5,0.00
2013-1-3,32.5,15.5,0.5,11.4,3.2,-5.8,74,60,41,30.27,30.12,8,2,13,0.00
2013-1-4,39.6,26.4,17.6,17.2,8.6,2.3,53,47,40,30.27,30.18,14,5,14,0.00
2013-1-5,30.0,24.3,15.4,21.0,12.1,3.6,75,60,43,30.18,30.09,8,2,10,0.00
2013-1-6,41.0,30.9,22.8,20.1,17.2,13.2,77,57,42,30.12,30.03,10,4,11,0.00
2013-1-7,50.7,40.0,31.5,29.2,24.6,16.7,71,55,39,30.12,29.97,19,5,20,0.00
2013-1-8,50.5,43.3,34.0,30.5,27.3,23.0,68,54,43,30.12,29.97,19,9,29,0.00
2013-1-9,46.0,36.4,25.0,31.4,20.4,12.7,74,53,42,29.97,29.74,29,5,29,0.00
2013-1-10,34.0,25.8,19.0,20.6,13.8,9.3,81,61,42,29.94,29.85,11,3,19,0.00
2013-1-11,29.1,20.4,10.2,10.1,5.2,-2.4,66,52,42,30.12,29.94,9,2,12,0.00
2013-1-12,26.4,12.9,3.9,6.9,-2.1,-10.6,56,51,42,30.21,30.12,8,2,8,0.00
2013-1-13,28.9,13.5,2.5,8.2,-3.4,-11.9,50,46,41,30.27,30.18,6,2,8,0.00
2013-1-14,40.3,22.1,7.9,17.3,4.9,-8.2,71,48,39,30.33,30.24,12,3,15,0.00
2013-1-15,45.3,28.6,16.2,21.2,12.7,5.2,73,52,38,30.47,30.33,9,4,9,0.00
2013-1-16,52.7,34.4,21.0,26.4,14.4,5.5,53,44,36,30.47,30.39,10,4,10,0.00
2013-1-17,48.9,34.4,25.9,23.7,13.7,7.4,47,42,37,30.42,30.30,10,5,13,0.00
2013-1-18,48.4,33.4,23.4,23.6,12.8,5.1,46,42,37,30.30,30.24,11,5,13,0.00
2013-1-19,52.3,34.6,23.2,26.1,14.1,6.1,52,43,36,30.33,30.24,11,4,11,0.00
2013-1-20,49.3,31.2,20.8,24.1,12.3,5.6,60,46,37,30.33,30.24,10,3,10,0.00
2013-1-21,50.0,33.3,23.2,24.7,12.5,4.5,46,42,37,30.27,30.12,13,5,15,0.00
2013-1-22,47.8,31.1,24.6,22.8,12.9,6.3,64,47,37,30.15,30.00,11,4,11,0.00
2013-1-23,54.5,39.9,26.1,28.3,21.4,12.4,71,48,36,30.06,29.85,15,4,22,0.00
2013-1-24,52.3,43.0,34.0,31.8,27.6,23.6,85,56,38,30.12,30.06,19,5,20,0.00
2013-1-25,47.3,43.2,37.4,37.4,32.6,30.0,85,67,54,30.09,29.91,22,6,24,0.04
2013-1-26,43.0,33.6,24.4,31.2,19.3,14.8,90,57,39,29.97,29.85,11,3,16,0.00
2013-1-27,39.9,30.7,20.1,21.8,16.9,13.9,86,58,40,30.03,29.94,12,3,13,0.00
2013-1-28,39.6,35.1,0.0,19.9,17.6,0.0,61,49,41,30.03,29.94,23,4,24,0.00
2013-1-29,46.6,39.8,35.6,24.8,22.0,18.6,62,49,42,30.30,30.03,15,4,19,0.00
2013-1-30,49.5,40.2,33.1,27.6,24.2,20.0,72,53,41,30.33,30.30,8,3,13,0.00
2013-1-31,49.3,37.7,27.9,26.7,23.8,19.0,75,58,39,30.33,30.21,11,3,11,0.00